weather.gov     
National Weather Service

Terminal Aerodrome Forecast
NWS Homepage
This page is being discontinued on March 12, 2014.
The same data is available at this site. Please update your bookmarks.
Thank you, and we apologize for the inconvenience.
Please send an email to SR-SRH.Webmaster@noaa.gov with any concerns.


Current Version
Previous Version:    01  02  03  04  05  06  07  08  09  10  11  12  13  14  15  16  17  18  19  20  21  22  23  24  25  26  27  28  29  30  
   31  32  33  34  35  36  37  38  39  
[Printable]
808
FTUS46 KPQR 012320
TAFAST
TAF
KAST 012320Z 0200/0224 30012KT P6SM FEW010
     FM020400 29006KT P6SM SCT008 BKN012
     FM020800 29004KT P6SM BKN008 OVC012
     FM021700 30007KT P6SM SCT008 BKN015
     FM021900 28011KT P6SM SKC=




808
FTUS46 KPQR 012320
TAFAST
TAF
KAST 012320Z 0200/0224 30012KT P6SM FEW010
     FM020400 29006KT P6SM SCT008 BKN012
     FM020800 29004KT P6SM BKN008 OVC012
     FM021700 30007KT P6SM SCT008 BKN015
     FM021900 28011KT P6SM SKC=


U.S. Dept. of Commerce
NOAA National Weather Service
1325 East West Highway
Silver Spring, MD 20910
E-mail: w-nws.webmaster@noaa.gov
Page last modified: May 16, 2007
NATIONAL WEATHER SERVICE: for Safety, for Work, for Fun - FOR LIFE